Stations météo

Publicité
Bourges, France (7255): Température de l'air & dewpoint: 20.04.2018 17:00:00 - 26.04.2018 17:00:00 (CEST)Bourges, France (7255): Température de l'air 5cm: 20.04.2018 17:00:00 - 26.04.2018 17:00:00 (CEST)Bourges, France (7255): Température de l'air -20cm & Température de l'air -100cm: 20.04.2018 17:00:00 - 26.04.2018 17:00:00 (CEST)Bourges, France (7255): Vitesse du vent & gusts: 20.04.2018 17:00:00 - 26.04.2018 17:00:00 (CEST)Bourges, France (7255): Direction du vent: 20.04.2018 17:00:00 - 26.04.2018 17:00:00 (CEST)Bourges, France (7255): reduced air pressure: 20.04.2018 17:00:00 - 26.04.2018 17:00:00 (CEST)Bourges, France (7255): visibility: 20.04.2018 17:00:00 - 26.04.2018 17:00:00 (CEST)Bourges, France (7255): Ensoleillement: 20.04.2018 17:00:00 - 26.04.2018 17:00:00 (CEST)Bourges, France (7255): Quantités de précipitations: 20.04.2018 17:00:00 - 26.04.2018 17:00:00 (CEST)
Date & Time tt [°C] td [°C] tt 5cm [°C] tt -20cm [°C] tt -100cm [°C] ff [km/h] ff [knt] fx [km/h] fx [knt] dd ppp [hPa] vv [km] sd [min] rr [mm]
26.04.2018 17:00:00 - - - - - - - - - - - - - -
26.04.2018 16:00:00 15,2 3,6 16,7 16,1 13,5 8 5 29 16 SW 1021,5 20 5 0,0
26.04.2018 15:00:00 14,2 1,8 17,1 15,7 13,5 9 5 24 13 W 1022,2 20 18 0,0
26.04.2018 14:00:00 13,9 2,8 17,6 15,1 13,5 8 4 27 15 W 1022,5 20 45 0,0
26.04.2018 13:00:00 14,6 3,1 18,0 14,7 13,5 11 6 24 13 W 1022,9 20 53 0,0
26.04.2018 12:00:00 12,6 3,3 16,3 14,4 13,5 10 5 23 13 NW 1023,4 20 45 0,0
26.04.2018 11:00:00 12,4 5,1 15,3 14,3 13,5 7 4 18 10 W 1023,4 20 47 0,0
26.04.2018 10:00:00 11,1 5,4 16,8 14,3 13,5 8 4 14 8 WNW 1023,9 20 60 0,0
26.04.2018 09:00:00 9,5 6,4 11,5 14,5 13,5 8 4 14 8 W 1023,8 20 60 0,0
26.04.2018 08:00:00 7,9 6,4 6,3 14,7 13,5 7 4 12 7 W 1023,7 20 53 0,0
26.04.2018 07:00:00 7,1 5,7 5,9 14,8 13,5 4 2 11 6 W 1023,2 20 0 0,0
26.04.2018 06:00:00 8,2 6,3 7,6 15,0 13,5 8 4 14 8 W 1023,0 20 0 0,0
26.04.2018 05:00:00 9,1 6,5 8,7 15,2 13,5 7 4 18 10 W 1022,7 20 0 0,0
26.04.2018 04:00:00 9,1 6,7 8,5 15,3 13,5 8 4 17 9 WSW 1022,5 20 0 0,0
26.04.2018 03:00:00 9,6 6,7 8,7 15,6 13,5 9 5 18 10 WSW 1022,4 20 0 0,0
26.04.2018 02:00:00 10,6 6,7 9,8 15,7 13,5 10 5 20 11 W 1022,2 20 0 0,0
26.04.2018 01:00:00 11,5 8,0 9,5 15,9 13,5 12 7 24 13 W 1021,6 20 0 0,0
26.04.2018 00:00:00 12,2 8,1 10,6 16,0 13,5 7 4 12 6 WSW 1021,0 20 0 0,0
25.04.2018 23:00:00 13,4 8,7 12,8 16,2 13,5 5 3 13 7 W 1020,6 20 0 0,0
25.04.2018 22:00:00 13,6 9,2 12,2 16,3 13,5 6 3 24 13 W 1019,9 20 0 0,0
25.04.2018 21:00:00 14,4 11,9 13,6 16,3 13,5 15 8 37 20 WSW 1018,6 20 20 0,0
25.04.2018 20:00:00 15,3 12,2 15,3 16,3 13,5 18 10 36 19 WSW 1017,8 20 29 0,0
25.04.2018 19:00:00 15,2 12,1 16,3 16,3 13,5 19 10 37 20 SW 1017,8 20 2 0,0
25.04.2018 18:00:00 16,4 10,9 17,8 16,1 13,5 27 15 43 23 WSW 1017,9 20 8 0,0
25.04.2018 17:00:00 17,3 11,6 17,7 16,0 13,5 22 12 38 21 SW 1017,9 20 13 0,0
25.04.2018 16:00:00 16,4 10,9 13,7 16,0 13,4 18 10 32 18 WSW 1018,5 20 1 0,2
25.04.2018 15:00:00 14,7 11,1 14,0 15,8 13,4 13 7 36 19 WSW 1019,2 20 0 0,0
25.04.2018 14:00:00 15,4 10,8 15,5 15,7 13,4 19 10 37 20 WSW 1019,3 20 0 0,0
25.04.2018 13:00:00 13,6 10,0 15,1 15,6 13,4 18 10 31 17 WSW 1019,5 20 0 0,0
25.04.2018 12:00:00 13,2 10,0 14,3 15,5 13,4 15 8 24 13 SW 1019,8 20 0 0,0
25.04.2018 11:00:00 12,1 10,0 12,1 15,5 13,4 11 6 21 11 WSW 1019,6 20 0 0,0
25.04.2018 10:00:00 10,5 9,3 10,9 15,6 13,4 9 5 21 11 WSW 1019,7 9 0 0,0
25.04.2018 09:00:00 9,6 8,4 10,0 15,7 13,4 11 6 27 15 W 1019,4 8 0 0,0
25.04.2018 08:00:00 9,7 8,1 9,2 15,9 13,4 13 7 26 14 W 1018,8 15 0 0,0
25.04.2018 07:00:00 9,1 7,9 8,5 16,1 13,4 9 5 18 10 WSW 1018,0 12 0 0,0
25.04.2018 06:00:00 10,2 9,0 9,5 16,3 13,4 9 5 25 13 W 1017,3 13 0 0,0
25.04.2018 05:00:00 11,1 10,0 9,7 16,6 13,4 10 6 16 9 WSW 1016,6 10 0 0,0
25.04.2018 04:00:00 10,9 9,8 9,1 16,9 13,4 9 5 14 8 SW 1016,6 10 0 0,0
25.04.2018 03:00:00 12,4 10,6 11,4 17,1 13,4 8 5 15 8 WSW 1016,6 15 0 0,0
25.04.2018 02:00:00 13,1 11,0 11,7 17,3 13,3 7 4 14 7 WSW 1016,6 20 0 0,0
25.04.2018 01:00:00 14,0 11,3 11,0 17,6 13,3 7 4 11 6 WSW 1016,6 20 0 0,0
25.04.2018 00:00:00 13,5 10,7 11,1 17,9 13,3 6 4 12 7 SW 1016,5 20 0 0,0
24.04.2018 23:00:00 14,8 11,2 12,3 18,2 13,3 6 3 13 7 SW 1016,5 20 0 0,0
24.04.2018 22:00:00 17,0 11,5 14,8 18,4 13,3 7 4 13 7 WSW 1016,2 20 0 0,0
24.04.2018 21:00:00 18,4 11,5 16,9 18,6 13,3 5 3 21 11 W 1015,9 20 27 0,0
24.04.2018 20:00:00 20,7 11,1 19,6 18,6 13,3 9 5 22 12 W 1015,8 20 60 0,0
24.04.2018 19:00:00 21,6 10,7 23,6 18,5 13,3 14 8 26 14 W 1016,1 20 56 0,0
24.04.2018 18:00:00 22,1 10,9 23,2 18,2 13,3 13 7 24 13 WSW 1016,5 20 44 0,0
24.04.2018 17:00:00 22,2 10,3 24,9 17,9 13,3 9 5 23 13 WSW 1017,0 20 51 0,0
24.04.2018 16:00:00 21,4 10,5 23,8 17,4 13,3 12 6 27 15 W 1018,1 18 38 0,0
24.04.2018 15:00:00 20,6 11,8 23,4 16,9 13,3 8 5 22 12 W 1018,9 20 35 0,0
24.04.2018 14:00:00 20,3 11,5 23,1 16,4 13,3 9 5 22 12 SW 1019,5 20 50 0,0
24.04.2018 13:00:00 19,4 11,4 23,3 15,9 13,3 13 7 25 13 SSW 1019,9 20 58 0,0
24.04.2018 12:00:00 18,5 10,6 21,2 15,5 13,3 15 8 25 14 SW 1020,5 20 37 0,0
24.04.2018 11:00:00 17,7 11,0 21,8 15,4 13,2 7 4 12 7 NNW 1021,0 19 46 0,0
24.04.2018 10:00:00 15,8 11,6 17,5 15,2 13,2 3 2 5 3 S 1021,3 20 44 0,0
24.04.2018 09:00:00 14,0 10,8 13,3 15,3 13,2 0 0 5 3 N 1021,1 18 31 0,0
24.04.2018 08:00:00 11,7 10,6 10,4 15,5 13,2 4 2 8 4 SW 1021,0 12 0 0,0
24.04.2018 07:00:00 10,8 9,7 10,4 15,6 13,2 3 2 5 3 SSW 1020,7 8 0 0,0
24.04.2018 06:00:00 11,6 10,5 11,1 15,7 13,2 0 0 8 4 N 1020,6 12 0 0,0
24.04.2018 05:00:00 11,6 10,3 9,0 15,9 13,2 3 1 7 4 W 1020,8 15 0 0,0
24.04.2018 04:00:00 12,0 10,4 9,1 16,1 13,2 5 3 6 4 W 1020,8 20 0 0,0
24.04.2018 03:00:00 12,3 10,5 9,7 16,3 13,2 4 2 6 3 WSW 1020,8 20 0 0,0
24.04.2018 02:00:00 13,1 11,0 9,7 16,6 13,2 4 2 5 3 W 1020,9 20 0 0,0
24.04.2018 01:00:00 13,2 11,3 9,0 16,8 13,2 3 2 8 4 W 1021,3 20 0 0,0
24.04.2018 00:00:00 14,1 11,3 10,3 17,1 13,1 4 2 8 4 WNW 1021,1 20 0 0,0
23.04.2018 23:00:00 15,1 11,1 9,0 17,4 13,1 7 4 10 5 WNW 1020,7 20 0 0,0
23.04.2018 22:00:00 15,7 11,1 9,8 17,5 13,1 3 2 6 3 WSW 1020,4 20 0 0,0
23.04.2018 21:00:00 17,1 11,1 14,6 17,7 13,1 4 2 14 8 W 1019,7 20 19 0,0
23.04.2018 20:00:00 19,2 11,2 18,1 17,6 13,1 7 4 13 7 W 1019,1 20 24 0,0
23.04.2018 19:00:00 19,3 11,1 19,7 17,6 13,1 8 4 18 10 W 1019,1 20 23 0,0
23.04.2018 18:00:00 20,1 11,3 22,1 17,3 13,1 9 5 21 11 W 1019,0 20 37 0,0
23.04.2018 17:00:00 20,1 11,3 22,1 17,1 13,0 6 3 16 9 WNW 1019,0 20 27 0,0
23.04.2018 16:00:00 19,6 11,1 21,0 17,0 13,0 10 5 22 12 WSW 1019,6 20 19 0,0
23.04.2018 15:00:00 18,1 12,5 19,7 16,8 13,0 12 6 21 12 WSW 1020,4 19 0 0,0
23.04.2018 14:00:00 17,6 12,7 17,8 16,6 13,0 12 7 26 14 W 1020,3 18 4 0,0
23.04.2018 13:00:00 16,2 12,9 17,2 16,5 13,0 10 5 18 10 WSW 1020,5 15 0 0,0
23.04.2018 12:00:00 15,7 13,2 16,0 16,5 13,0 9 5 20 11 W 1020,4 14 0 0,0
23.04.2018 11:00:00 15,3 13,5 14,7 16,5 13,0 12 6 23 12 WSW 1020,2 10 0 0,0
23.04.2018 10:00:00 14,7 13,4 14,3 16,6 12,9 10 5 18 10 WSW 1019,8 8 0 0,8
23.04.2018 09:00:00 14,3 13,2 14,0 16,7 12,9 9 5 16 9 WSW 1019,4 8 0 1,0
23.04.2018 08:00:00 14,4 13,1 14,0 16,8 12,9 10 6 22 12 WSW 1018,3 8 0 0,6
23.04.2018 07:00:00 15,1 12,4 14,8 17,0 12,9 8 4 14 8 W 1017,9 20 0 0,0
23.04.2018 06:00:00 15,6 12,3 14,3 17,1 12,9 10 5 17 9 WSW 1017,2 20 0 0,0
23.04.2018 05:00:00 15,8 12,0 14,7 17,3 12,9 3 2 11 6 W 1017,0 20 0 0,0
23.04.2018 04:00:00 16,0 12,2 14,2 17,4 12,9 8 4 12 7 WSW 1016,8 20 0 0,0
23.04.2018 03:00:00 15,5 12,1 14,3 17,6 12,9 7 4 9 5 S 1016,7 20 0 0,0
23.04.2018 02:00:00 17,1 12,0 15,7 17,8 12,8 5 3 10 5 W 1016,8 20 0 0,0
23.04.2018 01:00:00 18,2 11,5 16,2 18,0 12,8 6 3 11 6 W 1016,3 20 0 0,0
23.04.2018 00:00:00 18,2 11,3 14,3 18,3 12,8 8 4 13 7 WSW 1016,0 20 0 0,0
22.04.2018 23:00:00 17,6 11,2 13,7 18,6 12,8 5 3 10 5 SW 1015,6 20 0 0,0
22.04.2018 22:00:00 18,0 11,3 13,7 18,8 12,8 6 4 8 4 SSW 1015,2 20 0 0,0
22.04.2018 21:00:00 21,4 10,5 16,9 18,9 12,8 4 2 13 7 SW 1014,4 20 21 0,0
22.04.2018 20:00:00 23,9 9,8 22,9 18,9 12,8 9 5 22 12 W 1013,8 20 60 0,0
22.04.2018 19:00:00 25,1 7,7 26,2 18,9 12,7 14 8 28 15 WSW 1013,6 20 60 0,0
22.04.2018 18:00:00 25,5 8,0 26,1 18,6 12,7 19 10 35 19 SW 1013,4 20 52 0,0
22.04.2018 17:00:00 25,3 7,9 27,4 18,2 12,7 18 10 29 16 SSW 1013,8 19 56 0,0
22.04.2018 16:00:00 25,0 8,0 27,6 17,9 12,7 18 10 30 16 SW 1014,2 20 49 0,0
22.04.2018 15:00:00 24,6 10,5 27,5 17,5 12,7 15 8 27 14 SW 1014,7 19 35 0,0
22.04.2018 14:00:00 23,9 11,9 27,5 17,1 12,7 12 6 20 11 SSW 1014,5 20 38 0,0
22.04.2018 13:00:00 22,7 10,8 24,1 16,8 12,6 12 6 22 12 SSW 1015,0 20 29 0,0
22.04.2018 12:00:00 21,5 9,7 24,3 16,5 12,6 12 7 21 11 SSW 1015,4 20 28 0,0
22.04.2018 11:00:00 20,8 10,9 22,3 16,3 12,6 9 5 15 8 SSW 1015,6 20 24 0,0
22.04.2018 10:00:00 18,8 10,9 19,1 16,4 12,6 7 4 12 6 S 1015,6 20 30 0,0
22.04.2018 09:00:00 15,7 10,2 14,4 16,5 12,6 4 2 12 6 SSE 1015,5 20 10 0,0
22.04.2018 08:00:00 13,6 8,6 11,2 16,8 12,6 5 3 14 7 SE 1015,3 20 20 0,0
22.04.2018 07:00:00 13,3 8,6 10,4 17,0 12,5 8 5 21 12 SSW 1014,8 20 0 0,0
22.04.2018 06:00:00 12,7 9,1 9,5 17,3 12,5 10 5 16 8 SSW 1014,7 20 0 0,0
22.04.2018 05:00:00 13,8 9,8 10,3 17,6 12,5 8 4 15 8 SSW 1014,9 20 0 0,0
22.04.2018 04:00:00 13,7 10,9 10,1 17,9 12,5 4 2 10 5 SSW 1014,8 20 0 0,0
22.04.2018 03:00:00 15,0 10,6 12,1 18,1 12,5 6 4 10 5 SSE 1015,0 20 0 0,0
22.04.2018 02:00:00 15,7 11,5 12,2 18,4 12,5 6 3 9 5 E 1015,1 20 0 0,0
22.04.2018 01:00:00 17,6 11,6 14,7 18,7 12,4 8 5 11 6 ENE 1015,2 20 0 0,0
22.04.2018 00:00:00 17,8 11,4 15,0 19,1 12,4 8 4 10 5 ESE 1015,4 20 0 0,0
21.04.2018 23:00:00 19,7 10,7 15,1 19,3 12,4 6 4 10 6 E 1015,5 20 0 0,0
21.04.2018 22:00:00 21,8 9,7 15,9 19,6 12,4 7 4 10 5 ESE 1015,6 20 0 0,0
21.04.2018 21:00:00 23,0 9,7 16,4 19,8 12,4 7 4 8 4 ESE 1015,2 19 6 0,0
21.04.2018 20:00:00 25,0 10,1 23,3 19,9 12,4 6 3 14 8 E 1015,2 20 60 0,0
21.04.2018 19:00:00 26,7 10,0 30,3 19,7 12,4 9 5 21 11 ESE 1015,3 20 60 0,0
21.04.2018 18:00:00 27,5 9,3 31,8 19,4 12,3 12 7 22 12 SE 1015,6 20 60 0,0
21.04.2018 17:00:00 27,8 9,1 33,0 19,0 12,3 14 7 27 14 ESE 1016,1 20 60 0,0
21.04.2018 16:00:00 27,6 11,6 32,9 18,3 12,3 14 8 23 13 ESE 1017,0 20 60 0,0
21.04.2018 15:00:00 27,4 9,7 33,0 17,7 12,3 12 6 22 12 SE 1017,7 20 60 0,0
21.04.2018 14:00:00 26,6 10,7 32,6 17,1 12,3 12 6 22 12 SSE 1018,3 20 60 0,0
21.04.2018 13:00:00 26,1 13,6 31,3 16,5 12,3 8 5 14 7 E 1019,0 19 60 0,0
21.04.2018 12:00:00 24,1 13,0 29,2 16,1 12,2 6 3 15 8 E 1019,7 20 60 0,0
21.04.2018 11:00:00 22,9 13,4 26,9 16,0 12,2 5 3 15 8 E 1020,1 17 60 0,0
21.04.2018 10:00:00 20,5 11,7 23,1 16,0 12,2 10 5 16 8 E 1020,3 20 60 0,0
21.04.2018 09:00:00 18,1 10,9 16,5 16,1 12,2 9 5 12 7 E 1020,5 20 60 0,0
21.04.2018 08:00:00 15,3 10,3 12,6 16,3 12,2 4 2 14 8 ENE 1020,7 20 45 0,0
21.04.2018 07:00:00 13,3 9,9 10,1 16,6 12,2 9 5 11 6 ENE 1020,5 20 0 0,0
21.04.2018 06:00:00 12,9 9,5 10,6 16,8 12,1 7 4 12 7 ENE 1020,2 20 0 0,0
21.04.2018 05:00:00 14,1 9,5 12,6 17,1 12,1 9 5 11 6 E 1020,3 20 0 0,0
21.04.2018 04:00:00 15,8 9,7 13,5 17,4 12,1 8 5 11 6 E 1020,4 20 0 0,0
21.04.2018 03:00:00 17,1 9,5 12,7 17,7 12,1 9 5 11 6 ENE 1020,5 20 0 0,0
21.04.2018 02:00:00 18,0 9,9 15,7 17,9 12,1 5 3 14 8 ENE 1021,0 20 0 0,0
21.04.2018 01:00:00 18,5 10,1 15,8 18,2 12,0 10 5 11 6 ENE 1021,0 20 0 0,0
21.04.2018 00:00:00 20,1 9,6 17,7 18,4 12,0 9 5 14 7 ENE 1020,9 20 0 0,0
20.04.2018 23:00:00 21,4 9,6 18,7 18,8 12,0 9 5 14 8 NE 1020,7 20 0 0,0
20.04.2018 22:00:00 22,9 9,7 18,3 19,0 12,0 7 4 11 6 NE 1020,8 20 0 0,0
20.04.2018 21:00:00 24,8 7,9 22,0 19,1 12,0 8 4 16 9 NE 1020,3 20 22 0,0
20.04.2018 20:00:00 27,0 8,4 25,7 19,1 12,0 11 6 20 11 ENE 1019,9 20 60 0,0
20.04.2018 19:00:00 27,6 8,9 29,8 18,9 12,0 9 5 16 9 ENE 1020,0 20 60 0,0
20.04.2018 18:00:00 27,9 10,1 29,6 18,6 11,9 10 5 24 13 E 1020,3 20 55 0,0
20.04.2018 17:00:00 28,1 7,3 27,3 18,1 11,9 6 3 21 11 SE 1020,7 11 46 0,0

tt = Température de l'air
td = dewpoint
tt 5cm = Température de l'air 5cm
tt -20cm = Température de l'air -20cm
tt -100cm = Température de l'air -100cm
ff = Vitesse du vent
fx = gusts
dd = Direction du vent
ppp = reduced air pressure
vv = visibility
sd = Ensoleillement
rr = Quantités de précipitations

stations d'obs. à proximité